Asuncion, Paraguay

11:16 PM -03 en Noviembre 16, 2018 (GMT -0300)
Silvio Pettirossi International

Tiempo Historia de SGAS - Septiembre, 2018

Change the Weather History Date:

Viernes, Septiembre 14, 2018

  Actual Average Record
Temperature  
Temperatura media 69 ° F -  
Temperatura máxima 76 ° F 81 ° F 100 ° F (2007)
Temperatura mínima 62 ° F 63 ° F 44 ° F (2008)
Cooling Degree Days 4    
Growing Degree Days 19 (Base 50)    
Moisture  
Punto de rocío 64 ° F    
Average Humidity 83    
Maximum Humidity 100    
Minimum Humidity 49    
Precipitación  
Precipitación 0.03 pul 0.13 pul - ()
Presión al nivel del mar  
Presión al nivel del mar 29.91 pul    
Viento  
Velocidad del viento 4 mph ()    
Velocidad máxima del viento 12 mph    
Max Gust Speed -    
Visibilidad 6.3 Millas    
Eventos Lluvia    
Averages and records for this station are not official NWS values.
T = Trace of Precipitation, MM = Missing Value Source: Averaged Metar Reports

Daily Weather History Graph

Daily Weather History Graph

Search for Another Location

Airport or City:

Astronomía

Sep. 14, 2018 Salida Puesta
Hora real 5:48 AM -04 5:43 PM -04
Crepúsculo civil 5:25 AM -04 6:06 PM -04
Crepúsculo náutico 4:58 AM -04 6:32 PM -04
Crepúsculo astronómico 4:32 AM -04 6:59 PM -04
Luna 9:21 AM -04 (9/14) 10:44 PM -04 (9/14)
Horas de luz 12h 40m
Horas de luz
11h 54m
Creciente, 28% of the Moon is Illuminated
Sep 14
Creciente
Sep 16
Cuarto creciente
Sep 24
Luna llena
Oct 2
Cuarto menguante
Oct 9
Nueva

Hourly Weather History & Observations

Hora (-04) Temp. Punto de rocío Humedad Presión Visibilidad Wind Dir Velocidad del viento Velocidad de ráfagas Precip Eventos Condiciones
12:00 AM 66.2 ° F 64.4 ° F 94% 29.92 pul 5.0 mi Sin viento Sin viento - N/A   Nublado
1:00 AM 66.2 ° F 64.4 ° F 94% 29.92 pul 4.3 mi Sin viento Sin viento - N/A   Nublado
2:00 AM 66 ° F 64 ° F 90% 29.93 pul 4 mi Sin viento Sin viento - - Lluvia Llovizna débil
2:00 AM 66.2 ° F 64.4 ° F 94% 29.92 pul 4.3 mi Sin viento Sin viento - N/A   Llovizna débil
3:00 AM 66.2 ° F 64.4 ° F 94% 29.92 pul 3.7 mi Variable 3.5 mph - N/A   Llovizna
3:10 AM 66.2 ° F 64.4 ° F 94% 29.92 pul 3.7 mi Variable 3.5 mph - N/A   Llovizna
4:00 AM 66.2 ° F 64.4 ° F 94% 29.89 pul 5.0 mi Variable 4.6 mph - N/A   Llovizna débil
5:00 AM 65 ° F 64 ° F 95% 29.92 pul 5 mi SSO 6.9 mph - - Lluvia Llovizna débil
5:00 AM 66.2 ° F 64.4 ° F 94% 29.89 pul 5.0 mi Variable 4.6 mph - N/A   Llovizna débil
6:00 AM 66.2 ° F 64.4 ° F 94% 29.92 pul 5.6 mi Variable 5.8 mph - N/A   Nublado
7:00 AM 66.2 ° F 64.4 ° F 94% 29.95 pul 4.3 mi Sin viento Sin viento - N/A   Nublado
7:30 AM 66.2 ° F 64.4 ° F 94% 29.95 pul 4.3 mi SSO 5.8 mph - N/A   Nublado
8:00 AM 67 ° F 65 ° F 93% 29.95 pul 4 mi SO 5.8 mph - -   Neblina
8:00 AM 66.2 ° F 64.4 ° F 94% 29.95 pul 4.3 mi SO 5.8 mph - N/A   Muy nublado
8:30 AM 68.0 ° F 64.4 ° F 88% 29.95 pul 4.3 mi SO 9.2 mph - N/A   Nublado
9:00 AM 68.0 ° F 64.4 ° F 88% 29.95 pul 6.2 mi SSO 10.4 mph - N/A   Nublado
9:30 AM 69.8 ° F 64.4 ° F 83% 29.95 pul 6.2 mi SSO 9.2 mph - N/A   Muy nublado
10:00 AM 71.6 ° F 64.4 ° F 78% 29.95 pul 6.2 mi Sur 11.5 mph - N/A   Muy nublado
11:00 AM 72 ° F 63 ° F 66% 29.94 pul 12 mi Sur 10.4 mph - -   Muy nublado
11:00 AM 71.6 ° F 64.4 ° F 78% 29.92 pul 6.2 mi Sur 10.4 mph - N/A   Muy nublado
12:00 PM 73.4 ° F 62.6 ° F 69% 29.92 pul 6.2 mi SSO 6.9 mph - N/A   Muy nublado
1:00 PM 77.0 ° F 62.6 ° F 61% 29.89 pul 6.2 mi Variable 3.5 mph - N/A   Muy nublado
2:00 PM 76 ° F 61 ° F 49% 29.90 pul 12 mi OSO 4.6 mph - -   Muy nublado
2:00 PM 75.2 ° F 62.6 ° F 65% 29.86 pul 6.2 mi SO 6.9 mph - N/A   Muy nublado
3:00 PM 75.2 ° F 64.4 ° F 69% 29.83 pul 6.2 mi SSO 10.4 mph - N/A   Muy nublado
4:00 PM 77.0 ° F 62.6 ° F 61% 29.83 pul 6.2 mi SO 11.5 mph - N/A   Muy nublado
5:00 PM 75 ° F 61 ° F 53% 29.88 pul 12 mi SO 9.2 mph - -   Muy nublado
5:00 PM 75.2 ° F 62.6 ° F 65% 29.83 pul 6.2 mi SO 9.2 mph - N/A   Muy nublado
6:00 PM 73.4 ° F 62.6 ° F 69% 29.86 pul 6.2 mi SSO 10.4 mph - N/A   Muy nublado
7:00 PM 69.8 ° F 62.6 ° F 78% 29.86 pul - Sur 8.1 mph - N/A   Despejado
8:00 PM 68 ° F 63 ° F 78% 29.89 pul 12 mi SE 3.5 mph - -  
8:00 PM 68.0 ° F 62.6 ° F 83% 29.86 pul - SE 2.3 mph - N/A   Despejado
9:00 PM 64.4 ° F 62.6 ° F 94% 29.89 pul - Sin viento Sin viento - N/A   Despejado
10:00 PM 62.6 ° F 62.6 ° F 100% 29.92 pul - Sin viento Sin viento - N/A   Despejado
11:00 PM 65 ° F 64 ° F 93% 29.93 pul 12 mi SSO 3.5 mph - -   Despejado
11:00 PM 62.6 ° F 60.8 ° F 94% 29.92 pul - SSO 3.5 mph - N/A   Despejado